Location: Asheville, NC
(35.6000°N, 82.5500°W)
Time: 20:04:30
(UTC-04:00)

UWE-3 - Pass Details

Date: 11 March 2018
Orbit: 585 x 685 km, 97.6° (Epoch: 24 June)

Event Time Altitude Azimuth Distance (km) Brightness Sun altitude
Rises 20:39:28 0° 181° (S) 2,973 ? -14.0°
Reaches altitude 10° 20:41:47 10° 187° (S) 2,050 ? -14.5°
Maximum altitude 20:46:05 47° 260° (W) 852 ? -15.4°
Drops below altitude 10° 20:50:18 10° 335° (NNW) 2,004 ? -16.2°
Sets 20:52:32 0° 341° (NNW) 2,898 ? -16.7°
